User: anonymous   Login
Location: Unspecified
(0.0000°N, 0.0000°E)
Time: 21:41:00
(UTC+02:00)
Language:

Timation 2 Rocket - Orbit

View from above orbital plane
View from above orbital plane
View from above satellite
View from above satellite

Ground track
Ground track

The orbit data is extracted from the following two-line orbital elements,

1  4159U 69082AB  16236.93108560 -.00000011 +00000-0 +40403-4 0  9992
2  4159 069.9621 048.4311 0113036 099.8680 261.5196 13.72353558346857
Epoch (UTC): 23 August 2016 22:20:45
Eccentricity: 0.0113036
inclination: 69.9621°
perigee height: 908 km
apogee height: 1074 km
right ascension of ascending node: 48.4311°
argument of perigee: 99.8680°
revolutions per day: 13.72353558
mean anomaly at epoch: 261.5196°
orbit number at epoch: 34685

The dashed part of the orbit path shows where the satellite is in the earth's shadow,  

DLR